Weather in Kuznetsovskiy

Russia / Sverdlovsk Oblast     57°11′05″N   64°04′24″E
temp.,
°C
wind,
m/s
gust,
m/s
humid.,
%
clouds,
%
prec.,
mm/h
press.,
hPa
HPBL,
m
1 july, fri
fri123:00+7nne259030 0.0 1011100
02:00+5n249617 0.0 101281
05:00+5nw399658 0.0 1013249
08:00+10nw4776100 0.0 1013437
11:00+12nnw4774100 0.0 1014559
14:00+12nw4774100 0.0 1014541
17:00+13nw486985 0.0 1014521
20:00+12wnw368073 0.0 1013199
2 july, sat
sat223:00+9wnw368878 0.0 1013115
02:00+10nw2588100 0.0 101291
05:00+12nnw248270 0.0 101291
08:00+15nw2472100 0.0 1012383
11:00+18nw225858 0.0 10121111
14:00+20nw225040 0.0 10111426
17:00+21nnw13517 0.0 10111482
20:00+18sw117298 0.0 101111
3 july, sun
sun323:00+15sw2476100 0.0 101078
02:00+15wsw3773100 0.0 1010150
05:00+14sw3875100 0.0 1009179
08:00+15wsw3777100 0.0 1009230
11:00+17wnw357292 0.0 1009411
14:00+16nw2482100 0.0 1009231
17:00+15n4891100 1.3 1009372
20:00+13n2699100 0.8 1009297
4 july, mon
mon423:00+12nne4899100 1.3 1009495
02:00+11nne4109898 0.4 1009543
05:00+9nne411976 0.4 1010414
08:00+12nne510805 0.0 1010665
11:00+12nne597399 0.1 1010753
14:00+17nne4747100 0.0 10092234
17:00+14nne5763100 0.0 10091026
20:00+13n4870100 0.0 1009808
5 july, tue
tue523:00+12n41076100 0.1 1010597
02:00+9n411865 0.0 1009316
05:00+9n4117798 0.0 1009323
08:00+12n4964100 0.0 1010457
11:00+17n57485 0.0 10091546
14:00+19n474217 0.0 10092086
17:00+19n345193 0.0 10091526
20:00+15nnw3773100 0.0 1009192